Year,Month,Day,Hour,Minute,Value (Times are PST for windspeed in km/hr)
2017,06,14,00,00,5.70
2017,06,14,00,01,4.70
2017,06,14,00,02,8.30
2017,06,14,00,03,7.20
2017,06,14,00,04,8.40
2017,06,14,00,05,6.40
2017,06,14,00,06,5.40
2017,06,14,00,07,8.30
2017,06,14,00,08,5.80
2017,06,14,00,09,7.20
2017,06,14,00,10,10.10
2017,06,14,00,11,7.20
2017,06,14,00,12,6.70
2017,06,14,00,13,6.70
2017,06,14,00,14,8.30
2017,06,14,00,15,4.50
2017,06,14,00,16,5.70
2017,06,14,00,17,2.70
2017,06,14,00,18,5.10
2017,06,14,00,19,6.90
2017,06,14,00,20,6.10
2017,06,14,00,21,4.20
2017,06,14,00,22,2.80
2017,06,14,00,23,3.80
2017,06,14,00,24,4.70
2017,06,14,00,25,2.60
2017,06,14,00,26,4.30
2017,06,14,00,27,3.50
2017,06,14,00,28,4.20
2017,06,14,00,29,0.50
2017,06,14,00,30,0.00
2017,06,14,00,31,0.00
2017,06,14,00,32,4.50
2017,06,14,00,33,2.60
2017,06,14,00,34,3.00
2017,06,14,00,35,2.60
2017,06,14,00,36,3.80
2017,06,14,00,37,4.30
2017,06,14,00,38,3.20
2017,06,14,00,39,1.70
2017,06,14,00,40,0.00
2017,06,14,00,41,0.00
2017,06,14,00,42,0.00
2017,06,14,00,43,0.20
2017,06,14,00,44,2.60
2017,06,14,00,45,4.00
2017,06,14,00,46,3.60
2017,06,14,00,47,2.90
2017,06,14,00,48,0.80
2017,06,14,00,49,1.10
2017,06,14,00,50,0.00
2017,06,14,00,51,0.10
2017,06,14,00,52,0.40
2017,06,14,00,53,1.20
2017,06,14,00,54,2.40
2017,06,14,00,55,1.50
2017,06,14,00,56,2.60
2017,06,14,00,57,2.60
2017,06,14,00,58,3.20
2017,06,14,00,59,1.90
2017,06,14,01,00,2.70
2017,06,14,01,01,2.70
2017,06,14,01,02,3.60
2017,06,14,01,03,2.60
2017,06,14,01,04,2.40
2017,06,14,01,05,2.80
2017,06,14,01,06,3.70
2017,06,14,01,07,2.90
2017,06,14,01,08,1.40
2017,06,14,01,09,0.90
2017,06,14,01,10,0.00
2017,06,14,01,11,0.00
2017,06,14,01,12,0.00
2017,06,14,01,13,0.00
2017,06,14,01,14,0.00
2017,06,14,01,15,0.00
2017,06,14,01,16,0.00
2017,06,14,01,17,0.00
2017,06,14,01,18,0.00
2017,06,14,01,19,0.00
2017,06,14,01,20,0.00
2017,06,14,01,21,0.00
2017,06,14,01,22,0.00
2017,06,14,01,23,0.00
2017,06,14,01,24,0.00
2017,06,14,01,25,0.00
2017,06,14,01,26,0.00
2017,06,14,01,27,0.00
2017,06,14,01,28,0.00
2017,06,14,01,29,0.00
2017,06,14,01,30,0.00
2017,06,14,01,31,0.00
2017,06,14,01,32,0.00
2017,06,14,01,33,0.00
2017,06,14,01,34,0.00
2017,06,14,01,35,0.00
2017,06,14,01,36,0.00
2017,06,14,01,37,0.00
2017,06,14,01,38,0.00
2017,06,14,01,39,0.00
2017,06,14,01,40,0.00
2017,06,14,01,41,0.00
2017,06,14,01,42,0.00
2017,06,14,01,43,0.00
2017,06,14,01,44,0.00
2017,06,14,01,45,0.00
2017,06,14,01,46,0.00
2017,06,14,01,47,0.00
2017,06,14,01,48,0.00
2017,06,14,01,49,0.00
2017,06,14,01,50,0.00
2017,06,14,01,51,0.00
2017,06,14,01,52,0.00
2017,06,14,01,53,0.00
2017,06,14,01,54,0.00
2017,06,14,01,55,0.00
2017,06,14,01,56,0.00
2017,06,14,01,57,0.00
2017,06,14,01,58,0.00
2017,06,14,01,59,0.00
2017,06,14,02,00,0.00
2017,06,14,02,01,0.00
2017,06,14,02,02,0.00
2017,06,14,02,03,0.00
2017,06,14,02,04,0.00
2017,06,14,02,05,0.00
2017,06,14,02,06,0.00
2017,06,14,02,07,0.00
2017,06,14,02,08,0.00
2017,06,14,02,09,0.00
2017,06,14,02,10,0.00
2017,06,14,02,11,0.00
2017,06,14,02,12,0.00
2017,06,14,02,13,0.00
2017,06,14,02,14,0.00
2017,06,14,02,15,0.00
2017,06,14,02,16,0.00
2017,06,14,02,17,0.00
2017,06,14,02,18,0.00
2017,06,14,02,19,0.00
2017,06,14,02,20,0.00
2017,06,14,02,21,0.00
2017,06,14,02,22,0.00
2017,06,14,02,23,0.00
2017,06,14,02,24,0.00
2017,06,14,02,25,0.00
2017,06,14,02,26,0.00
2017,06,14,02,27,0.00
2017,06,14,02,28,0.00
2017,06,14,02,29,0.00
2017,06,14,02,30,0.00
2017,06,14,02,31,0.00
2017,06,14,02,32,0.00
2017,06,14,02,33,0.00
2017,06,14,02,34,0.00
2017,06,14,02,35,0.00
2017,06,14,02,36,0.00
2017,06,14,02,37,0.00
2017,06,14,02,38,0.00
2017,06,14,02,39,0.00
2017,06,14,02,40,0.00
2017,06,14,02,41,0.00
2017,06,14,02,42,0.00
2017,06,14,02,43,0.00
2017,06,14,02,44,0.00
2017,06,14,02,45,0.00
2017,06,14,02,46,0.00
2017,06,14,02,47,0.00
2017,06,14,02,48,0.00
2017,06,14,02,49,0.00
2017,06,14,02,50,0.00
2017,06,14,02,51,0.00
2017,06,14,02,52,0.00
2017,06,14,02,53,0.00
2017,06,14,02,54,0.00
2017,06,14,02,55,0.00
2017,06,14,02,56,0.00
2017,06,14,02,57,0.00
2017,06,14,02,58,0.00
2017,06,14,02,59,0.00
2017,06,14,03,00,0.00
2017,06,14,03,01,0.00
2017,06,14,03,02,0.00
2017,06,14,03,03,0.00
2017,06,14,03,04,0.00
2017,06,14,03,05,0.00
2017,06,14,03,06,0.00
2017,06,14,03,07,0.00
2017,06,14,03,08,0.00
2017,06,14,03,09,0.00
2017,06,14,03,10,0.00
2017,06,14,03,11,0.00
2017,06,14,03,12,0.00
2017,06,14,03,13,0.00
2017,06,14,03,14,0.00
2017,06,14,03,15,0.00
2017,06,14,03,16,0.00
2017,06,14,03,17,0.00
2017,06,14,03,18,0.00
2017,06,14,03,19,0.00
2017,06,14,03,20,0.00
2017,06,14,03,21,0.00
2017,06,14,03,22,0.00
2017,06,14,03,23,0.00
2017,06,14,03,24,0.00
2017,06,14,03,25,0.00
2017,06,14,03,26,0.00
2017,06,14,03,27,0.00
2017,06,14,03,28,0.00
2017,06,14,03,29,0.00
2017,06,14,03,30,0.00
2017,06,14,03,31,0.00
2017,06,14,03,32,0.00
2017,06,14,03,33,0.00
2017,06,14,03,34,0.00
2017,06,14,03,35,0.00
2017,06,14,03,36,0.00
2017,06,14,03,37,0.00
2017,06,14,03,38,0.00
2017,06,14,03,39,0.00
2017,06,14,03,40,0.00
2017,06,14,03,41,0.00
2017,06,14,03,42,0.00
2017,06,14,03,43,0.00
2017,06,14,03,44,0.00
2017,06,14,03,45,0.00
2017,06,14,03,46,0.00
2017,06,14,03,47,0.00
2017,06,14,03,48,0.00
2017,06,14,03,49,0.00
2017,06,14,03,50,0.00
2017,06,14,03,51,0.00
2017,06,14,03,52,0.00
2017,06,14,03,53,0.00
2017,06,14,03,54,0.00
2017,06,14,03,55,0.00
2017,06,14,03,56,0.00
2017,06,14,03,57,0.00
2017,06,14,03,58,0.00
2017,06,14,03,59,0.00
2017,06,14,04,00,0.00
2017,06,14,04,01,0.00
2017,06,14,04,02,0.00
2017,06,14,04,03,0.00
2017,06,14,04,04,0.00
2017,06,14,04,05,0.00
2017,06,14,04,06,0.00
2017,06,14,04,07,0.00
2017,06,14,04,08,0.00
2017,06,14,04,09,0.00
2017,06,14,04,10,0.00
2017,06,14,04,11,0.00
2017,06,14,04,12,0.00
2017,06,14,04,13,0.00
2017,06,14,04,14,0.00
2017,06,14,04,15,0.00
2017,06,14,04,16,0.00
2017,06,14,04,17,0.00
2017,06,14,04,18,0.00
2017,06,14,04,19,0.00
2017,06,14,04,20,0.00
2017,06,14,04,21,0.00
2017,06,14,04,22,0.00
2017,06,14,04,23,0.00
2017,06,14,04,24,0.00
2017,06,14,04,25,0.00
2017,06,14,04,26,0.00
2017,06,14,04,27,0.00
2017,06,14,04,28,0.00
2017,06,14,04,29,0.00
2017,06,14,04,30,0.00
2017,06,14,04,31,0.00
2017,06,14,04,32,0.00
2017,06,14,04,33,0.00
2017,06,14,04,34,0.00
2017,06,14,04,35,0.00
2017,06,14,04,36,0.00
2017,06,14,04,37,0.00
2017,06,14,04,38,0.00
2017,06,14,04,39,0.00
2017,06,14,04,40,0.00
2017,06,14,04,41,0.00
2017,06,14,04,42,0.00
2017,06,14,04,43,0.00
2017,06,14,04,44,0.00
2017,06,14,04,45,0.00
2017,06,14,04,46,0.00
2017,06,14,04,47,0.00
2017,06,14,04,48,0.00
2017,06,14,04,49,0.00
2017,06,14,04,50,0.00
2017,06,14,04,51,0.00
2017,06,14,04,52,0.00
2017,06,14,04,53,0.00
2017,06,14,04,54,0.00
2017,06,14,04,55,0.00
2017,06,14,04,56,0.00
2017,06,14,04,57,0.00
2017,06,14,04,58,0.00
2017,06,14,04,59,0.00
2017,06,14,05,00,0.00
2017,06,14,05,01,0.00
2017,06,14,05,02,0.00
2017,06,14,05,03,0.00
2017,06,14,05,04,0.00
2017,06,14,05,05,0.00
2017,06,14,05,06,0.00
2017,06,14,05,07,0.00
2017,06,14,05,08,0.00
2017,06,14,05,09,0.00
2017,06,14,05,10,0.00
2017,06,14,05,11,0.00
2017,06,14,05,12,0.00
2017,06,14,05,13,0.00
2017,06,14,05,14,0.00
2017,06,14,05,15,0.00
2017,06,14,05,16,0.00
2017,06,14,05,17,0.00
2017,06,14,05,18,0.00
2017,06,14,05,19,0.00
2017,06,14,05,20,0.00
2017,06,14,05,21,0.00
2017,06,14,05,22,0.00
2017,06,14,05,23,0.00
2017,06,14,05,24,0.00
2017,06,14,05,25,0.00
2017,06,14,05,26,0.00
2017,06,14,05,27,0.00
2017,06,14,05,28,0.00
2017,06,14,05,29,0.00
2017,06,14,05,30,0.00
2017,06,14,05,31,0.00
2017,06,14,05,32,0.00
2017,06,14,05,33,0.00
2017,06,14,05,34,0.00
2017,06,14,05,35,0.00
2017,06,14,05,36,0.00
2017,06,14,05,37,0.00
2017,06,14,05,38,0.00
2017,06,14,05,39,0.00
2017,06,14,05,40,0.00
2017,06,14,05,41,0.00
2017,06,14,05,42,0.00
2017,06,14,05,43,0.00
2017,06,14,05,44,0.00
2017,06,14,05,45,0.00
2017,06,14,05,46,0.00
2017,06,14,05,47,0.00
2017,06,14,05,48,0.00
2017,06,14,05,49,0.00
2017,06,14,05,50,0.00
2017,06,14,05,51,0.00
2017,06,14,05,52,0.00
2017,06,14,05,53,0.00
2017,06,14,05,54,0.00
2017,06,14,05,55,0.00
2017,06,14,05,56,0.00
2017,06,14,05,57,0.00
2017,06,14,05,58,0.00
2017,06,14,05,59,0.00
2017,06,14,06,00,0.00
2017,06,14,06,01,0.00
2017,06,14,06,02,0.00
2017,06,14,06,03,0.00
2017,06,14,06,04,0.00
2017,06,14,06,05,0.00
2017,06,14,06,06,0.00
2017,06,14,06,07,0.00
2017,06,14,06,08,0.00
2017,06,14,06,09,0.00
2017,06,14,06,10,0.00
2017,06,14,06,11,0.00
2017,06,14,06,12,0.00
2017,06,14,06,13,0.00
2017,06,14,06,14,0.00
2017,06,14,06,15,0.00
2017,06,14,06,16,0.00
2017,06,14,06,17,0.00
2017,06,14,06,18,0.00
2017,06,14,06,19,0.00
2017,06,14,06,20,0.00
2017,06,14,06,21,0.00
2017,06,14,06,22,0.00
2017,06,14,06,23,0.00
2017,06,14,06,24,0.00
2017,06,14,06,25,0.00
2017,06,14,06,26,0.00
2017,06,14,06,27,0.00
2017,06,14,06,28,0.00
2017,06,14,06,29,0.00
2017,06,14,06,30,0.00
2017,06,14,06,31,0.00
2017,06,14,06,32,0.00
2017,06,14,06,33,0.00
2017,06,14,06,34,0.00
2017,06,14,06,35,0.00
2017,06,14,06,36,0.00
2017,06,14,06,37,0.00
2017,06,14,06,38,0.00
2017,06,14,06,39,0.00
2017,06,14,06,40,0.00
2017,06,14,06,41,0.00
2017,06,14,06,42,0.00
2017,06,14,06,43,0.00
2017,06,14,06,44,0.00
2017,06,14,06,45,0.00
2017,06,14,06,46,0.00
2017,06,14,06,47,0.00
2017,06,14,06,48,0.00
2017,06,14,06,49,0.00
2017,06,14,06,50,0.00
2017,06,14,06,51,0.00
2017,06,14,06,52,0.00
2017,06,14,06,53,0.00
2017,06,14,06,54,0.00
2017,06,14,06,55,0.00
2017,06,14,06,56,0.00
2017,06,14,06,57,0.00
2017,06,14,06,58,0.00
2017,06,14,06,59,0.00
2017,06,14,07,00,0.00
2017,06,14,07,01,0.00
2017,06,14,07,02,0.00
2017,06,14,07,03,0.00
2017,06,14,07,04,0.00
2017,06,14,07,05,0.00
2017,06,14,07,06,0.00
2017,06,14,07,07,0.00
2017,06,14,07,08,0.00
2017,06,14,07,09,0.00
2017,06,14,07,10,0.00
2017,06,14,07,11,0.00
2017,06,14,07,12,0.00
2017,06,14,07,13,0.00
2017,06,14,07,14,0.00
2017,06,14,07,15,0.00
2017,06,14,07,16,0.00
2017,06,14,07,17,0.00
2017,06,14,07,18,0.00
2017,06,14,07,19,0.00
2017,06,14,07,20,0.00
2017,06,14,07,21,0.00
2017,06,14,07,22,0.00
2017,06,14,07,23,0.00
2017,06,14,07,24,0.00
2017,06,14,07,25,0.00
2017,06,14,07,26,0.00
2017,06,14,07,27,0.00
2017,06,14,07,28,0.00
2017,06,14,07,29,0.00
2017,06,14,07,30,0.00
2017,06,14,07,31,0.00
2017,06,14,07,32,0.00
2017,06,14,07,33,0.00
2017,06,14,07,34,0.00
2017,06,14,07,35,0.00
2017,06,14,07,36,0.00
2017,06,14,07,37,0.00
2017,06,14,07,38,0.00
2017,06,14,07,39,0.00
2017,06,14,07,40,0.00
2017,06,14,07,41,0.00
2017,06,14,07,42,0.00
2017,06,14,07,43,0.00
2017,06,14,07,44,0.00
2017,06,14,07,45,0.00
2017,06,14,07,46,0.00
2017,06,14,07,47,0.00
2017,06,14,07,48,0.00
2017,06,14,07,49,0.00
2017,06,14,07,50,0.00
2017,06,14,07,51,0.00
2017,06,14,07,52,0.00
2017,06,14,07,53,0.00
2017,06,14,07,54,0.00
2017,06,14,07,55,0.00
2017,06,14,07,56,0.00
2017,06,14,07,57,0.00
2017,06,14,07,58,0.00
2017,06,14,07,59,0.00
2017,06,14,08,00,0.00
2017,06,14,08,01,0.00
2017,06,14,08,02,0.00
2017,06,14,08,03,0.00
2017,06,14,08,04,0.00
2017,06,14,08,05,0.00
2017,06,14,08,06,0.00
2017,06,14,08,07,0.00
2017,06,14,08,08,0.00
2017,06,14,08,09,0.00
2017,06,14,08,10,0.00
2017,06,14,08,11,0.00
2017,06,14,08,12,0.00
2017,06,14,08,13,0.00
2017,06,14,08,14,0.00
2017,06,14,08,15,0.00
2017,06,14,08,16,0.00
2017,06,14,08,17,0.00
2017,06,14,08,18,0.00
2017,06,14,08,19,0.00
2017,06,14,08,20,0.00
2017,06,14,08,21,0.00
2017,06,14,08,22,0.00
2017,06,14,08,23,0.00
2017,06,14,08,24,0.00
2017,06,14,08,25,0.00
2017,06,14,08,26,0.00
2017,06,14,08,27,0.00
2017,06,14,08,28,0.00
2017,06,14,08,29,0.00
2017,06,14,08,30,0.00
2017,06,14,08,31,0.00
2017,06,14,08,32,0.00
2017,06,14,08,33,0.00
2017,06,14,08,34,0.00
2017,06,14,08,35,0.00
2017,06,14,08,36,0.00
2017,06,14,08,37,0.00
2017,06,14,08,38,0.00
2017,06,14,08,39,0.00
2017,06,14,08,40,0.00
2017,06,14,08,41,0.00
2017,06,14,08,42,0.00
2017,06,14,08,43,0.00
2017,06,14,08,44,0.00
2017,06,14,08,45,0.00
2017,06,14,08,46,0.00
2017,06,14,08,47,0.00
2017,06,14,08,48,0.00
2017,06,14,08,49,0.00
2017,06,14,08,50,0.00
2017,06,14,08,51,0.00
2017,06,14,08,52,0.00
2017,06,14,08,53,0.00
2017,06,14,08,54,0.00
2017,06,14,08,55,0.00
2017,06,14,08,56,0.00
2017,06,14,08,57,0.00
2017,06,14,08,58,0.00
2017,06,14,08,59,0.00
2017,06,14,09,00,0.00
2017,06,14,09,01,0.00
2017,06,14,09,02,0.00
2017,06,14,09,03,0.00
2017,06,14,09,04,0.00
2017,06,14,09,05,0.00
2017,06,14,09,06,0.00
2017,06,14,09,07,0.00
2017,06,14,09,08,0.00
2017,06,14,09,09,0.00
2017,06,14,09,10,0.00
2017,06,14,09,11,0.00
2017,06,14,09,12,0.00
2017,06,14,09,13,0.00
2017,06,14,09,14,0.00
2017,06,14,09,15,0.00
2017,06,14,09,16,0.00
2017,06,14,09,17,0.00
2017,06,14,09,18,0.00
2017,06,14,09,19,0.00
2017,06,14,09,20,0.00
2017,06,14,09,21,0.00
2017,06,14,09,22,0.00
2017,06,14,09,23,0.00
2017,06,14,09,24,0.00
2017,06,14,09,25,0.00
2017,06,14,09,26,0.00
2017,06,14,09,27,0.00
2017,06,14,09,28,0.00
2017,06,14,09,29,0.00
2017,06,14,09,30,0.00
2017,06,14,09,31,3.20
2017,06,14,09,32,2.00
2017,06,14,09,33,0.00
2017,06,14,09,34,0.00
2017,06,14,09,35,0.00
2017,06,14,09,36,0.00
2017,06,14,09,37,2.90
2017,06,14,09,38,3.00
2017,06,14,09,39,2.40
2017,06,14,09,40,1.70
2017,06,14,09,41,2.40
2017,06,14,09,42,4.30
2017,06,14,09,43,2.90
2017,06,14,09,44,1.50
2017,06,14,09,45,4.00
2017,06,14,09,46,4.10
2017,06,14,09,47,4.30
2017,06,14,09,48,1.80
2017,06,14,09,49,0.00
2017,06,14,09,50,0.10
2017,06,14,09,51,0.90
2017,06,14,09,52,1.70
2017,06,14,09,53,0.10
2017,06,14,09,54,1.00
2017,06,14,09,55,1.50
2017,06,14,09,56,0.40
2017,06,14,09,57,0.20
2017,06,14,09,58,3.40
2017,06,14,09,59,3.70
2017,06,14,10,00,11.70
2017,06,14,10,01,9.70
2017,06,14,10,02,14.10
2017,06,14,10,03,11.30
2017,06,14,10,04,11.40
2017,06,14,10,05,11.60
2017,06,14,10,06,13.20
2017,06,14,10,07,12.20
2017,06,14,10,08,10.00
2017,06,14,10,09,10.90
2017,06,14,10,10,11.00
2017,06,14,10,11,12.30
2017,06,14,10,12,12.80
2017,06,14,10,13,13.60
2017,06,14,10,14,15.80
2017,06,14,10,15,13.10
2017,06,14,10,16,12.80
2017,06,14,10,17,15.10
2017,06,14,10,18,12.40
2017,06,14,10,19,9.20
2017,06,14,10,20,12.60
2017,06,14,10,21,12.80
2017,06,14,10,22,13.50
2017,06,14,10,23,11.90
2017,06,14,10,24,11.00
2017,06,14,10,25,12.90
2017,06,14,10,26,11.30
2017,06,14,10,27,11.90
2017,06,14,10,28,12.50
2017,06,14,10,29,13.50
2017,06,14,10,30,13.70
2017,06,14,10,31,15.20
2017,06,14,10,32,13.40
2017,06,14,10,33,13.60
2017,06,14,10,34,14.50
2017,06,14,10,35,13.30
2017,06,14,10,36,13.90
2017,06,14,10,37,11.80
2017,06,14,10,38,12.30
2017,06,14,10,39,11.00
2017,06,14,10,40,8.70
2017,06,14,10,41,10.10
2017,06,14,10,42,13.90
2017,06,14,10,43,11.30
2017,06,14,10,44,12.30
2017,06,14,10,45,11.30
2017,06,14,10,46,11.30
2017,06,14,10,47,13.10
2017,06,14,10,48,10.10
2017,06,14,10,49,11.70
2017,06,14,10,50,10.10
2017,06,14,10,51,11.60
2017,06,14,10,52,11.90
2017,06,14,10,53,11.10
2017,06,14,10,54,7.80
2017,06,14,10,55,10.70
2017,06,14,10,56,12.50
2017,06,14,10,57,13.20
2017,06,14,10,58,14.10
2017,06,14,10,59,13.50
2017,06,14,11,00,13.10
2017,06,14,11,01,12.50
2017,06,14,11,02,11.10
2017,06,14,11,03,13.10
2017,06,14,11,04,11.20
2017,06,14,11,05,9.10
2017,06,14,11,06,9.10
2017,06,14,11,07,11.30
2017,06,14,11,08,9.60
2017,06,14,11,09,10.40
2017,06,14,11,10,12.50
2017,06,14,11,11,12.70
2017,06,14,11,12,14.50
2017,06,14,11,13,10.90
2017,06,14,11,14,10.00
2017,06,14,11,15,9.10
2017,06,14,11,16,12.20
2017,06,14,11,17,11.60
2017,06,14,11,18,11.70
2017,06,14,11,19,13.10
2017,06,14,11,20,14.60
2017,06,14,11,21,12.30
2017,06,14,11,22,12.60
2017,06,14,11,23,12.10
2017,06,14,11,24,11.10
2017,06,14,11,25,12.50
2017,06,14,11,26,10.70
2017,06,14,11,27,11.40
2017,06,14,11,28,8.80
2017,06,14,11,29,12.40
2017,06,14,11,30,16.10
2017,06,14,11,31,15.10
2017,06,14,11,32,12.40
2017,06,14,11,33,16.10
2017,06,14,11,34,17.50
2017,06,14,11,35,15.90
2017,06,14,11,36,18.10
2017,06,14,11,37,16.20
2017,06,14,11,38,17.60
2017,06,14,11,39,16.20
2017,06,14,11,40,14.80
2017,06,14,11,41,16.00
2017,06,14,11,42,13.50
2017,06,14,11,43,14.30
2017,06,14,11,44,13.60
2017,06,14,11,45,14.10
2017,06,14,11,46,14.70
2017,06,14,11,47,13.10
2017,06,14,11,48,16.30
2017,06,14,11,49,13.20
2017,06,14,11,50,13.60
2017,06,14,11,51,15.50
2017,06,14,11,52,15.00
2017,06,14,11,53,15.70
2017,06,14,11,54,16.40
2017,06,14,11,55,17.90
2017,06,14,11,56,20.70
2017,06,14,11,57,18.20
2017,06,14,11,58,17.20
2017,06,14,11,59,16.30
2017,06,14,12,00,14.20
2017,06,14,12,01,18.00
2017,06,14,12,02,20.70
2017,06,14,12,03,17.00
2017,06,14,12,04,18.20
2017,06,14,12,05,18.90
2017,06,14,12,06,18.40
2017,06,14,12,07,15.50
2017,06,14,12,08,17.20
2017,06,14,12,09,19.50
2017,06,14,12,10,16.90
2017,06,14,12,11,15.90
2017,06,14,12,12,15.60
2017,06,14,12,13,17.90
2017,06,14,12,14,14.70
2017,06,14,12,15,13.70
2017,06,14,12,16,20.40
2017,06,14,12,17,17.10
2017,06,14,12,18,17.70
2017,06,14,12,19,16.70
2017,06,14,12,20,20.60
2017,06,14,12,21,18.40
2017,06,14,12,22,20.70
2017,06,14,12,23,22.10
2017,06,14,12,24,23.70
2017,06,14,12,25,22.90
2017,06,14,12,26,20.10
2017,06,14,12,27,19.90
2017,06,14,12,28,17.90
2017,06,14,12,29,16.00
2017,06,14,12,30,13.20
2017,06,14,12,31,17.90
2017,06,14,12,32,17.90
2017,06,14,12,33,20.10
2017,06,14,12,34,19.30
2017,06,14,12,35,20.20
2017,06,14,12,36,17.60
2017,06,14,12,37,15.70
2017,06,14,12,38,17.00
2017,06,14,12,39,18.50
2017,06,14,12,40,19.50
2017,06,14,12,41,23.50
2017,06,14,12,42,22.00
2017,06,14,12,43,18.80
2017,06,14,12,44,24.20
2017,06,14,12,45,23.20
2017,06,14,12,46,23.20
2017,06,14,12,47,23.60
2017,06,14,12,48,19.40
2017,06,14,12,49,21.00
2017,06,14,12,50,21.90
2017,06,14,12,51,21.70
2017,06,14,12,52,23.00
2017,06,14,12,53,26.00
2017,06,14,12,54,22.50
2017,06,14,12,55,22.40
2017,06,14,12,56,22.80
2017,06,14,12,57,18.40
2017,06,14,12,58,17.60
2017,06,14,12,59,18.60
2017,06,14,13,00,20.80
2017,06,14,13,01,20.40
2017,06,14,13,02,18.90
2017,06,14,13,03,19.80
2017,06,14,13,04,20.60
2017,06,14,13,05,20.00
2017,06,14,13,06,22.20
2017,06,14,13,07,20.60
2017,06,14,13,08,25.00
2017,06,14,13,09,22.80
2017,06,14,13,10,25.30
2017,06,14,13,11,23.40
2017,06,14,13,12,25.40
2017,06,14,13,13,24.20
2017,06,14,13,14,21.60
2017,06,14,13,15,20.80
2017,06,14,13,16,25.50
2017,06,14,13,17,23.00
2017,06,14,13,18,20.10
2017,06,14,13,19,25.00
2017,06,14,13,20,21.20
2017,06,14,13,21,23.60
2017,06,14,13,22,20.90
2017,06,14,13,23,18.20
2017,06,14,13,24,17.30
2017,06,14,13,25,20.70
2017,06,14,13,26,19.70
2017,06,14,13,27,19.10
2017,06,14,13,28,22.20
2017,06,14,13,29,24.00
2017,06,14,13,30,23.40
2017,06,14,13,31,24.20
2017,06,14,13,32,23.20
2017,06,14,13,33,24.00
2017,06,14,13,34,22.40
2017,06,14,13,35,25.60
2017,06,14,13,36,23.70
2017,06,14,13,37,25.30
2017,06,14,13,38,23.50
2017,06,14,13,39,25.90
2017,06,14,13,40,25.90
2017,06,14,13,41,22.40
2017,06,14,13,42,26.60
2017,06,14,13,43,22.20
2017,06,14,13,44,23.30
2017,06,14,13,45,23.70
2017,06,14,13,46,26.90
2017,06,14,13,47,28.70
2017,06,14,13,48,24.10
2017,06,14,13,49,25.60
2017,06,14,13,50,27.40
2017,06,14,13,51,25.70
2017,06,14,13,52,20.90
2017,06,14,13,53,22.40
2017,06,14,13,54,23.40
2017,06,14,13,55,24.00
2017,06,14,13,56,24.00
2017,06,14,13,57,25.90
2017,06,14,13,58,25.80
2017,06,14,13,59,23.80
2017,06,14,14,00,27.20
2017,06,14,14,01,23.80
2017,06,14,14,02,31.80
2017,06,14,14,03,28.10
2017,06,14,14,04,29.60
2017,06,14,14,05,29.50
2017,06,14,14,06,31.50
2017,06,14,14,07,30.80
2017,06,14,14,08,25.50
2017,06,14,14,09,27.70
2017,06,14,14,10,31.70
2017,06,14,14,11,30.30
2017,06,14,14,12,30.30
2017,06,14,14,13,28.30
2017,06,14,14,14,31.20
2017,06,14,14,15,30.50
2017,06,14,14,16,29.40
2017,06,14,14,17,29.90
2017,06,14,14,18,28.80
2017,06,14,14,19,26.50
2017,06,14,14,20,28.90
2017,06,14,14,21,24.10
2017,06,14,14,22,26.80
2017,06,14,14,23,26.90
2017,06,14,14,24,23.30
2017,06,14,14,25,28.60
2017,06,14,14,26,27.90
2017,06,14,14,27,25.20
2017,06,14,14,28,27.90
2017,06,14,14,29,24.40
2017,06,14,14,30,25.50
2017,06,14,14,31,26.50
2017,06,14,14,32,28.60
2017,06,14,14,33,30.80
2017,06,14,14,34,28.40
2017,06,14,14,35,33.00
2017,06,14,14,36,32.90
2017,06,14,14,37,37.20
2017,06,14,14,38,32.70
2017,06,14,14,39,35.40
2017,06,14,14,40,32.20
2017,06,14,14,41,32.70
2017,06,14,14,42,29.40
2017,06,14,14,43,27.80
2017,06,14,14,44,31.50
2017,06,14,14,45,32.60
2017,06,14,14,46,35.60
2017,06,14,14,47,30.10
2017,06,14,14,48,29.30
2017,06,14,14,49,27.50
2017,06,14,14,50,29.20
2017,06,14,14,51,28.70
2017,06,14,14,52,27.60
2017,06,14,14,53,24.90
2017,06,14,14,54,24.30
2017,06,14,14,55,30.70
2017,06,14,14,56,27.70
2017,06,14,14,57,29.80
2017,06,14,14,58,29.40
2017,06,14,14,59,30.50
2017,06,14,15,00,26.30
2017,06,14,15,01,27.30
2017,06,14,15,02,28.00
2017,06,14,15,03,30.70
2017,06,14,15,04,26.50
2017,06,14,15,05,26.50
2017,06,14,15,06,27.80
2017,06,14,15,07,34.10
2017,06,14,15,08,30.90
2017,06,14,15,09,29.50
2017,06,14,15,10,28.80
2017,06,14,15,11,25.90
2017,06,14,15,12,22.50
2017,06,14,15,13,21.90
2017,06,14,15,14,23.80
2017,06,14,15,15,20.40
2017,06,14,15,16,26.60
2017,06,14,15,17,27.70
2017,06,14,15,18,30.70
2017,06,14,15,19,31.80
2017,06,14,15,20,35.30
2017,06,14,15,21,34.90
2017,06,14,15,22,34.30
2017,06,14,15,23,33.10
2017,06,14,15,24,29.60
2017,06,14,15,25,28.20
2017,06,14,15,26,30.50
2017,06,14,15,27,31.50
2017,06,14,15,28,31.80
2017,06,14,15,29,33.10
2017,06,14,15,30,33.30
2017,06,14,15,31,33.90
2017,06,14,15,32,29.30
2017,06,14,15,33,28.60
2017,06,14,15,34,24.70
2017,06,14,15,35,24.30
2017,06,14,15,36,24.40
2017,06,14,15,37,28.10
2017,06,14,15,38,29.00
2017,06,14,15,39,33.30
2017,06,14,15,40,21.50
2017,06,14,15,41,27.50
2017,06,14,15,42,27.80
2017,06,14,15,43,30.50
2017,06,14,15,44,27.80
2017,06,14,15,45,28.30
2017,06,14,15,46,30.20
2017,06,14,15,47,23.30
2017,06,14,15,48,25.20
2017,06,14,15,49,28.70
2017,06,14,15,50,32.80
2017,06,14,15,51,23.40
2017,06,14,15,52,29.50
2017,06,14,15,53,33.10
2017,06,14,15,54,30.70
2017,06,14,15,55,30.00
2017,06,14,15,56,28.20
2017,06,14,15,57,30.00
2017,06,14,15,58,27.50
2017,06,14,15,59,26.30
2017,06,14,16,00,26.70
2017,06,14,16,01,28.80
2017,06,14,16,02,31.00
2017,06,14,16,03,27.90
2017,06,14,16,04,30.50
2017,06,14,16,05,24.80
2017,06,14,16,06,29.60
2017,06,14,16,07,24.00
2017,06,14,16,08,23.20
2017,06,14,16,09,28.50
2017,06,14,16,10,25.30
2017,06,14,16,11,28.30
2017,06,14,16,12,24.70
2017,06,14,16,13,30.00
2017,06,14,16,14,31.80
2017,06,14,16,15,28.20
2017,06,14,16,16,31.10
2017,06,14,16,17,31.50
2017,06,14,16,18,29.00
2017,06,14,16,19,22.00
2017,06,14,16,20,26.80
2017,06,14,16,21,29.30
2017,06,14,16,22,28.80
2017,06,14,16,23,27.20
2017,06,14,16,24,26.60
2017,06,14,16,25,29.00
2017,06,14,16,26,30.20
2017,06,14,16,27,30.00
2017,06,14,16,28,34.00
2017,06,14,16,29,27.90
2017,06,14,16,30,28.70
2017,06,14,16,31,28.50
2017,06,14,16,32,27.30
2017,06,14,16,33,30.40
2017,06,14,16,34,29.20
2017,06,14,16,35,27.60
2017,06,14,16,36,30.40
2017,06,14,16,37,31.90
2017,06,14,16,38,28.20
2017,06,14,16,39,24.30
2017,06,14,16,40,27.60
2017,06,14,16,41,24.00
2017,06,14,16,42,28.00
2017,06,14,16,43,28.40
2017,06,14,16,44,25.00
2017,06,14,16,45,22.10
2017,06,14,16,46,26.20
2017,06,14,16,47,24.80
2017,06,14,16,48,25.90
2017,06,14,16,49,23.00
2017,06,14,16,50,27.90
2017,06,14,16,51,30.00
2017,06,14,16,52,24.60
2017,06,14,16,53,23.70
2017,06,14,16,54,26.50
2017,06,14,16,55,23.70
2017,06,14,16,56,27.10
2017,06,14,16,57,25.60
2017,06,14,16,58,26.60
2017,06,14,16,59,28.90
2017,06,14,17,00,28.30
2017,06,14,17,01,27.50
2017,06,14,17,02,31.20
2017,06,14,17,03,28.00
2017,06,14,17,04,28.80
2017,06,14,17,05,26.10
2017,06,14,17,06,25.10
2017,06,14,17,07,29.10
2017,06,14,17,08,24.70
2017,06,14,17,09,25.80
2017,06,14,17,10,27.30
2017,06,14,17,11,27.60
2017,06,14,17,12,30.80
2017,06,14,17,13,31.10
2017,06,14,17,14,27.30
2017,06,14,17,15,29.90
2017,06,14,17,16,31.40
2017,06,14,17,17,27.90
2017,06,14,17,18,27.00
2017,06,14,17,19,28.90
2017,06,14,17,20,27.30
2017,06,14,17,21,26.10
2017,06,14,17,22,27.60
2017,06,14,17,23,27.30
2017,06,14,17,24,24.30
2017,06,14,17,25,28.40
2017,06,14,17,26,29.10
2017,06,14,17,27,29.20
2017,06,14,17,28,26.10
2017,06,14,17,29,27.30
2017,06,14,17,30,26.60
2017,06,14,17,31,25.40
2017,06,14,17,32,26.10
2017,06,14,17,33,24.00
2017,06,14,17,34,25.80
2017,06,14,17,35,23.10
2017,06,14,17,36,28.30
2017,06,14,17,37,21.30
2017,06,14,17,38,26.40
2017,06,14,17,39,24.30
2017,06,14,17,40,24.70
2017,06,14,17,41,25.20
2017,06,14,17,42,25.00
2017,06,14,17,43,24.20
2017,06,14,17,44,25.30
2017,06,14,17,45,21.40